Starlink 4510

operational
NORAD ID: 53405 Int'l Des: 2022-097 Owner: SPXS Country: US Constellation: starlink
LEOCIRCULAR

About Starlink 4510

Description loading...

Live Position

Loading 3D Globe...

Upcoming Passes

Altitude History

Altitude vs Time

uPlot chart will show altitude changes over time

Two-Line Element Set

1 53405U 22097T 25346.88637732 -.00001701 00000-0 -88781-4 0 9998
2 53405 53.2184 153.7929 0001375 88.0484 272.0666 15.08839666185416
Epoch: Dec 12, 2025 • Age: 17 hours

Current Status

Altitude 540.3 km
Velocity 7.59 km/s
Sub-Earth Point 2.50°N, 37.04°E
Launch Date Aug 10, 2022
Age 3.3 years
Type internet

Technical Details

Classification Payload
Mass 297.00 kg
Dry Mass 275.00 kg
Total Mass 297.00 kg
Length 0.20 m
Diameter 2.80 m
Span 9.00 m
Shape Box + pan
Manufacturer SPXS
Bus Type Starlink
Phase Status In Orbit
Owner/State SPXS/US

Large Constellations

Loading constellations...